OE3PDB-4 Weather Reports


Display with metric or nautical units.
time (UTC)temp
F
wind
direction
speed
MPH
gust
MPH
rain 1hr
in
rain 24hr
in
rain mn
in
humidity
%
barometer
mb
20260507174542 65 292 0.0 0.0 0.00 0.00 0.00 57 1013.8
20260507173542 65 315 0.0 0.0 0.00 0.00 0.00 58 1013.6
20260507172542 65 315 0.0 0.0 0.00 0.00 0.00 57 1013.5
20260507171542 65 315 0.0 0.0 0.00 0.00 0.00 57 1013.4
20260507170542 65 315 0.0 0.0 0.00 0.00 0.00 56 1013.2
20260507165542 65 315 0.0 0.0 0.00 0.00 0.00 55 1013.2
20260507164542 65 315 0.0 0.0 0.00 0.00 0.00 54 1013.1
20260507163542 66 315 0.0 0.0 0.00 0.00 0.00 53 1013.1
20260507162542 66 292 0.0 0.0 0.00 0.00 0.00 52 1013.0
20260507160956 67 315 0.0 0.0 0.00 0.00 0.00 50 1013.1
20260507155956 67 315 0.0 0.0 0.00 0.00 0.00 49 1012.9
20260507154956 68 315 0.0 1.0 0.00 0.00 0.00 48 1012.7
20260507153956 69 292 2.0 2.0 0.00 0.00 0.00 46 1012.6
20260507152956 70 315 0.0 0.0 0.00 0.00 0.00 46 1012.6
20260507151956 70 315 1.0 1.0 0.00 0.00 0.00 46 1012.5
20260507150958 70 315 0.0 0.0 0.00 0.00 0.00 46 1012.4
20260507145956 70 315 1.0 1.0 0.00 0.00 0.00 47 1012.4
20260507144956 70 315 0.0 1.0 0.00 0.00 0.00 44 1012.3
20260507143956 70 315 0.0 3.0 0.00 0.00 0.00 44 1012.3
20260507142956 70 315 1.0 1.0 0.00 0.00 0.00 43 1012.4
20260507141956 71 315 3.0 3.0 0.00 0.00 0.00 42 1012.4
20260507140956 72 315 0.0 0.0 0.00 0.00 0.00 41 1012.3
20260507135956 72 292 2.0 2.0 0.00 0.00 0.00 41 1012.3
20260507134956 72 337 1.0 1.0 0.00 0.00 0.00 41 1012.3
20260507133956 72 270 0.0 0.0 0.00 0.00 0.00 42 1012.3
20260507132956 72 292 0.0 0.0 0.00 0.00 0.00 42 1012.4
20260507131956 72 315 0.0 0.0 0.00 0.00 0.00 42 1012.5
20260507130956 72 315 0.0 0.0 0.00 0.00 0.00 43 1012.6
20260507125956 70 315 0.0 0.0 0.00 0.00 0.00 44 1012.6
20260507124956 69 292 0.0 0.0 0.00 0.00 0.00 44 1012.7
20260507123956 69 270 0.0 0.0 0.00 0.00 0.00 45 1012.6
20260507122956 69 315 0.0 0.0 0.00 0.00 0.00 45 1012.8
20260507121956 68 315 0.0 0.0 0.00 0.00 0.00 46 1012.7
20260507120956 66 337 0.0 0.0 0.00 0.00 0.00 48 1012.9
20260507115956 65 270 1.0 1.0 0.00 0.00 0.00 48 1013.1
20260507114956 65 315 0.0 0.0 0.00 0.00 0.00 48 1013.1
20260507113956 65 315 1.0 1.0 0.00 0.00 0.00 49 1013.1
20260507112957 65 315 0.0 0.0 0.00 0.00 0.00 50 1013.2
20260507111956 65 315 0.0 2.0 0.00 0.00 0.00 49 1013.2
20260507110956 65 292 0.0 0.0 0.00 0.00 0.00 48 1013.2
20260507105956 64 292 0.0 0.0 0.00 0.00 0.00 49 1013.3
20260507104956 64 337 2.0 2.0 0.00 0.00 0.00 49 1013.6
20260507103956 64 315 0.0 0.0 0.00 0.00 0.00 50 1013.5
20260507102957 64 315 5.0 6.0 0.00 0.00 0.00 50 1013.5
20260507101956 64 315 0.0 2.0 0.00 0.00 0.00 50 1013.7
20260507100957 64 315 0.0 1.0 0.00 0.00 0.00 50 1013.7
20260507095957 63 315 0.0 2.0 0.00 0.00 0.00 50 1013.7
20260507094957 63 270 0.0 2.0 0.00 0.00 0.00 51 1013.5
20260507093957 63 315 0.0 2.0 0.00 0.00 0.00 51 1013.5
20260507092957 62 292 0.0 0.0 0.00 0.00 0.00 52 1013.5
20260507091957 62 225 0.0 0.0 0.00 0.00 0.00 52 1013.6
20260507090957 62 315 3.0 6.0 0.00 0.00 0.00 51 1013.4
20260507085957 62 315 0.0 3.0 0.00 0.00 0.00 52 1013.2
20260507084957 62 315 1.0 1.0 0.00 0.00 0.00 52 1013.1
20260507083957 62 292 2.0 7.0 0.00 0.00 0.00 52 1013.1
20260507082957 62 202 0.0 6.0 0.00 0.00 0.00 53 1013.0
20260507081957 62 270 0.0 4.0 0.00 0.00 0.00 53 1012.7
20260507080957 61 315 2.0 8.0 0.00 0.00 0.00 53 1012.8
20260507075957 61 315 0.0 0.0 0.00 0.00 0.00 54 1012.8
20260507074957 61 315 0.0 1.0 0.00 0.00 0.00 55 1012.8
20260507073957 60 315 1.0 1.0 0.00 0.00 0.00 55 1012.7
20260507072957 60 337 2.0 2.0 0.00 0.00 0.00 55 1012.6
20260507071957 60 292 0.0 1.0 0.00 0.00 0.00 56 1012.4
20260507070957 60 270 0.0 0.0 0.00 0.00 0.00 57 1012.3
20260507065957 59 337 0.0 5.0 0.00 0.00 0.00 57 1012.3
20260507064957 59 292 2.0 3.0 0.00 0.00 0.00 58 1012.3
20260507063957 59 292 1.0 1.0 0.00 0.00 0.00 58 1012.4
20260507062957 59 270 0.0 0.0 0.00 0.00 0.00 58 1012.4
20260507061957 59 247 0.0 0.0 0.00 0.00 0.00 58 1012.1
20260507060957 59 270 0.0 0.0 0.00 0.00 0.00 58 1012.2
20260507055957 59 180 0.0 5.0 0.00 0.00 0.00 58 1012.1
20260507054957 59 157 2.0 2.0 0.00 0.00 0.00 58 1012.0
20260507053957 59 292 0.0 1.0 0.00 0.00 0.00 57 1011.9
20260507052957 60 315 2.0 2.0 0.00 0.00 0.00 58 1011.8
20260507051957 59 315 0.0 0.0 0.00 0.00 0.00 58 1011.7
20260507050957 59 292 0.0 0.0 0.00 0.00 0.00 59 1011.8
20260507045957 59 315 1.0 1.0 0.00 0.00 0.00 58 1011.5
20260507044957 59 315 0.0 0.0 0.00 0.00 0.00 58 1011.3
20260507043957 59 315 0.0 2.0 0.00 0.00 0.00 59 1011.2
20260507042957 58 315 0.0 0.0 0.00 0.00 0.00 59 1011.3
20260507041957 58 270 0.0 1.0 0.00 0.00 0.00 60 1011.2
20260507040957 57 292 0.0 0.0 0.00 0.00 0.00 59 1010.9
20260507035957 58 337 0.0 5.0 0.00 0.00 0.00 59 1011.0
20260507034957 58 315 0.0 0.0 0.00 0.00 0.00 59 1010.9
20260507033957 58 270 0.0 0.0 0.00 0.00 0.00 59 1010.9
20260507032957 58 225 0.0 0.0 0.00 0.00 0.00 58 1010.9
20260507031957 58 270 0.0 2.0 0.00 0.00 0.00 58 1010.8
20260507030957 58 292 0.0 0.0 0.00 0.00 0.00 58 1010.7
20260507025957 58 292 2.0 2.0 0.00 0.00 0.00 59 1010.7
20260507024957 58 292 0.0 0.0 0.00 0.00 0.00 59 1010.5
20260507023957 59 292 0.0 0.0 0.00 0.00 0.00 59 1010.5
20260507022957 59 315 6.0 6.0 0.00 0.00 0.00 60 1010.5
20260507021957 59 315 0.0 0.0 0.00 0.00 0.00 60 1010.7
20260507020957 59 270 0.0 1.0 0.00 0.00 0.00 60 1010.5
20260507015957 59 292 0.0 0.0 0.00 0.00 0.00 60 1010.4
20260507014957 59 292 0.0 0.0 0.00 0.00 0.00 61 1010.2
20260507013958 59 337 0.0 4.0 0.00 0.00 0.00 61 1010.3
20260507012957 59 315 0.0 0.0 0.00 0.00 0.00 61 1010.2
20260507011957 60 292 0.0 0.0 0.00 0.00 0.00 61 1010.1
20260507010957 60 337 0.0 3.0 0.00 0.00 0.00 61 1010.0
20260507005957 60 292 0.0 3.0 0.00 0.00 0.00 61 1009.9
20260507004957 60 225 0.0 0.0 0.00 0.00 0.00 61 1010.0
20260507003957 60 315 0.0 1.0 0.00 0.00 0.00 61 1009.8
20260507002957 60 337 1.0 3.0 0.00 0.00 0.00 61 1009.6
20260507001957 60 315 5.0 5.0 0.00 0.00 0.00 61 1009.6
20260507000957 60 112 0.0 4.0 0.00 0.00 0.00 61 1009.6
20260506235957 61 315 0.0 2.0 0.00 0.00 0.00 61 1009.5
20260506234957 61 202 0.0 0.0 0.00 0.00 0.00 61 1009.4
20260506233957 61 315 2.0 2.0 0.00 0.00 0.00 62 1009.2
20260506232957 61 292 0.0 0.0 0.00 0.00 0.00 63 1009.3
20260506231957 61 270 1.0 1.0 0.00 0.00 0.00 63 1009.2
20260506230957 61 292 0.0 2.0 0.00 0.00 0.00 63 1009.1
20260506225957 61 315 2.0 2.0 0.00 0.00 0.00 62 1009.1
20260506224957 62 292 0.0 1.0 0.00 0.00 0.00 62 1008.9
20260506223958 62 315 4.0 4.0 0.00 0.00 0.00 60 1008.5
20260506222958 62 270 0.0 0.0 0.00 0.00 0.00 59 1008.4
20260506221958 62 315 0.0 2.0 0.00 0.00 0.00 59 1008.1
20260506220958 62 315 2.0 2.0 0.00 0.00 0.00 58 1007.9
20260506215958 62 315 1.0 1.0 0.00 0.00 0.00 58 1007.8
20260506214958 62 180 0.0 0.0 0.00 0.00 0.00 57 1007.5
20260506213958 63 180 0.0 0.0 0.00 0.00 0.00 57 1007.5
20260506212958 63 180 0.0 0.0 0.00 0.00 0.00 56 1007.2
20260506211958 64 180 0.0 0.0 0.00 0.00 0.00 56 1007.0
20260506210958 64 180 0.0 0.0 0.00 0.00 0.00 55 1006.8
20260506205958 65 180 0.0 0.0 0.00 0.00 0.00 54 1006.4
20260506204958 66 180 0.0 0.0 0.00 0.00 0.00 53 1006.4
20260506203958 66 180 0.0 0.0 0.00 0.00 0.00 53 1006.4
20260506202958 66 180 0.0 0.0 0.00 0.00 0.00 52 1006.3
20260506201958 67 180 0.0 0.0 0.00 0.00 0.00 52 1006.2
20260506200958 67 180 0.0 0.0 0.00 0.00 0.00 51 1006.2
20260506195958 68 180 0.0 0.0 0.00 0.00 0.00 51 1006.1
20260506194958 68 180 0.0 0.0 0.00 0.00 0.00 50 1005.9
20260506193958 68 180 0.0 0.0 0.00 0.00 0.00 50 1005.7
20260506192958 68 180 0.0 0.0 0.00 0.00 0.00 49 1005.7
20260506191958 68 180 0.0 0.0 0.00 0.00 0.00 49 1005.6
20260506190958 69 180 0.0 0.0 0.00 0.00 0.00 48 1005.6
20260506185958 69 180 0.0 0.0 0.00 0.00 0.00 48 1005.5
20260506184958 69 180 0.0 1.0 0.00 0.00 0.00 47 1005.2
20260506183958 69 180 2.0 2.0 0.00 0.00 0.00 47 1005.1
20260506182958 70 180 0.0 0.0 0.00 0.00 0.00 46 1005.1
20260506181958 70 202 0.0 0.0 0.00 0.00 0.00 46 1005.0
20260506180958 70 202 0.0 0.0 0.00 0.00 0.00 45 1004.7
20260506175958 71 180 0.0 0.0 0.00 0.00 0.00 45 1004.7
20260506174958 71 180 0.0 0.0 0.00 0.00 0.00 45 1004.7